User: anonymous   Login
Location: Unspecified
(0.0000°N, 0.0000°E)
Time: 05:43:03
(UTC+00:00)
Language:

OBJECT AA - Orbit

View from above orbital plane
View from above orbital plane
View from above satellite
View from above satellite

Ground track
Ground track

The orbit data is extracted from the following two-line orbital elements,

1 42849U 17042AA  18112.86561364  .00000299  00000-0  34691-4 0  9990
2 42849  97.6019  17.8881 0008950  31.4202 328.7550 14.92175373 42095
Epoch (UTC): 22 April 2018 20:46:29
Eccentricity: 0.0008950
inclination: 97.6019°
perigee height: 585 km
apogee height: 597 km
right ascension of ascending node: 17.8881°
argument of perigee: 31.4202°
revolutions per day: 14.92175373
mean anomaly at epoch: 328.7550°
orbit number at epoch: 4209

The dashed part of the orbit path shows where the satellite is in the earth's shadow,  

DLR